Content
SEND FEEDBACK

Daily
Averages
Monthly
Summary
United States of America

MARION, VIRGINIA


Home > North America > United States > Virginia
Elevation: 2363 feet     Latitude: 36 49N     Longitude: 081 31W

WEATHER
 
SELECT A DAY
Number of Records: 440,664;   Date Range: 4/23/95 - 10/20/14
 
SHARE

PRINT THIS DATA

[ ← Previous Day ]
WEATHER ALMANAC - JANUARY 31, 2013
[ Next Day → ]
[ °C ]   °F
Weather ElementAverageHighLow
Temperature33.5 °F44.6 °F (12:35 am)30.2 °F (7:55 am)
Dewpoint23.9 °F44.1 °F (12:55 am)17.4 °F (2:35 pm)
Humidity68.5 %100 % (2:15 am)55 % (2:15 pm)
Barometer29.77 in29.91 in (9:35 pm)29.48 in (12:55 am)
Wind Speed22.9 mph33.4 mph (12:15 pm)
Wind Gust44.9 mph (6:35 am)
Weather ElementAverage
Visibility9.2 mi
Wind DirectionW (269.4 °)

Weather ElementTotal
Precipitation0.06 in
Heating Degree Days27.6 (Base 65)
Averaged from 69 records on January 31, 2013
WEATHER CONDITIONS BREAKOUT
WIND DIRECTION BREAKOUT
WEATHER BY HOUR - JANUARY 31, 2013
[ °C ]   °F
Local TimeTemperatureDewpointHumidityBarometerVisibilityWind DirectionWind SpeedGust SpeedPrecipitationEventsConditions
12:35 AM44.6 °F43.7 °F97 %29.49 in7.0 miWSW (250°)16.1 mph25.3 mphRainRain
12:55 AM44.2 °F44.1 °F99 %29.48 in7.0 miWSW (250°)21.9 mph28.8 mphDrizzle
1:15 AM42.1 °F39.0 °F89 %29.52 in7.0 miWest (270°)21.9 mph36.8 mph0.01 inRainLight Rain
1:35 AM41.5 °F37.8 °F86 %29.52 in10.0 miWest (280°)23.0 mph34.5 mph0.01 inRainRain
1:55 AM39.6 °F38.5 °F96 %29.52 in5.0 miWest (270°)24.2 mph33.4 mph0.01 inRainLight Rain
2:15 AM38.5 °F38.5 °F100 %29.53 in7.0 miWSW (250°)18.4 mph25.3 mph0.01 inRainLight Rain
2:35 AM38.3 °F38.3 °F100 %29.54 in7.0 miWest (270°)19.6 mph28.8 mph0.01 inRainLight Rain
2:55 AM38.3 °F32.7 °F80 %29.54 in10.0 miWest (280°)26.5 mph35.7 mph0.01 inOvercast
3:15 AM37.4 °F32.2 °F81 %29.55 in5.0 miWest (270°)27.6 mph34.5 mphSnowLight Snow
3:35 AM36.5 °F32.0 °F84 %29.58 in7.0 miWest (280°)18.4 mph32.2 mphSnowLight Snow
3:55 AM36.1 °F30.6 °F80 %29.59 in10.0 miWest (280°)20.7 mph28.8 mphSnowLight Snow
4:15 AM35.6 °F28.8 °F76 %29.60 in10.0 miWNW (290°)25.3 mph34.5 mphOvercast
4:35 AM34.3 °F28.4 °F79 %29.63 in5.0 miWNW (290°)15.0 mph35.7 mphSnowLight Snow
4:55 AM33.4 °F25.2 °F72 %29.64 in10.0 miWNW (290°)23.0 mph38.0 mphOvercast
5:15 AM32.4 °F24.3 °F72 %29.66 in10.0 miWNW (290°)27.6 mph40.3 mphOvercast
5:35 AM32.0 °F24.1 °F73 %29.67 in10.0 miWNW (290°)23.0 mph32.2 mphOvercast
5:55 AM32.0 °F24.6 °F74 %29.68 in10.0 miWest (280°)19.6 mph38.0 mphOvercast
6:15 AM31.6 °F24.4 °F75 %29.69 in7.0 miWest (270°)21.9 mph34.5 mphSnowLight Snow
6:35 AM31.6 °F20.1 °F62 %29.68 in10.0 miWest (280°)31.1 mph44.9 mphOvercast
7:15 AM30.7 °F21.9 °F70 %29.70 in10.0 miWest (280°)20.7 mph29.9 mphOvercast
7:35 AM30.7 °F21.0 °F67 %29.70 in10.0 miWest (270°)27.6 mph33.4 mphOvercast
7:55 AM30.2 °F18.9 °F63 %29.72 in10.0 miWest (280°)26.5 mph42.6 mphOvercast
8:15 AM30.2 °F19.8 °F65 %29.74 in10.0 miWest (270°)18.4 mph33.4 mphOvercast
8:35 AM30.6 °F20.3 °F66 %29.76 in10.0 miWest (270°)27.6 mph36.8 mphOvercast
8:55 AM30.6 °F20.3 °F66 %29.79 in10.0 miWest (270°)23.0 mph33.4 mphOvercast
9:15 AM30.6 °F21.7 °F70 %29.79 in7.0 miWest (270°)27.6 mph32.2 mphSnowLight Snow
9:35 AM30.9 °F21.6 °F68 %29.79 in10.0 miWest (270°)31.1 mph39.1 mphOvercast
9:55 AM31.6 °F19.8 °F62 %29.80 in10.0 miWest (270°)29.9 mph40.3 mphOvercast
10:15 AM31.1 °F21.2 °F67 %29.81 in10.0 miWest (270°)27.6 mph34.5 mphOvercast
10:35 AM30.2 °F24.6 °F80 %29.82 in4.0 miWest (260°)23.0 mph27.6 mphSnowLight Snow
10:55 AM30.7 °F23.4 °F74 %29.83 in7.0 miWest (270°)29.9 mph35.7 mphSnowLight Snow
11:15 AM32.7 °F22.6 °F66 %29.83 in10.0 miWSW (250°)23.0 mph28.8 mphOvercast
11:35 AM32.4 °F20.7 °F62 %29.83 in10.0 miWest (270°)23.0 mph33.4 mphOvercast
11:55 AM33.6 °F20.7 °F59 %29.82 in10.0 miWest (270°)20.7 mph33.4 mphOvercast
12:15 PM32.7 °F19.2 °F58 %29.81 in10.0 miWest (270°)33.4 mph43.7 mphOvercast
12:35 PM32.4 °F19.4 °F59 %29.81 in10.0 miWest (280°)25.3 mph40.3 mphOvercast
12:55 PM33.6 °F19.2 °F56 %29.81 in10.0 miWest (270°)31.1 mph41.4 mphOvercast
1:15 PM32.9 °F19.6 °F58 %29.82 in10.0 miWest (270°)25.3 mph39.1 mphOvercast
1:35 PM32.2 °F18.9 °F58 %29.83 in10.0 miWest (280°)28.8 mph38.0 mphOvercast
1:55 PM32.4 °F19.9 °F60 %29.84 in10.0 miWest (280°)25.3 mph44.9 mphOvercast
2:15 PM32.5 °F18.0 °F55 %29.84 in10.0 miWest (280°)27.6 mph42.6 mphOvercast
2:35 PM32.2 °F17.4 °F55 %29.85 in10.0 miWest (270°)20.7 mph36.8 mphOvercast
2:55 PM32.0 °F20.7 °F63 %29.85 in7.0 miWest (270°)27.6 mph38.0 mphSnowLight Snow
3:15 PM32.5 °F21.2 °F63 %29.86 in10.0 miWest (260°)23.0 mph32.2 mphOvercast
3:35 PM32.0 °F21.0 °F64 %29.86 in7.0 miWest (270°)29.9 mph41.4 mphSnowLight Snow
3:55 PM32.4 °F20.1 °F61 %29.87 in10.0 miWest (270°)21.9 mph36.8 mphOvercast
4:15 PM32.4 °F21.6 °F64 %29.88 in10.0 miWest (260°)26.5 mph38.0 mphOvercast
4:35 PM32.7 °F20.7 °F61 %29.88 in10.0 miWest (270°)20.7 mph33.4 mphOvercast
4:55 PM33.1 °F18.9 °F56 %29.87 in10.0 miWest (260°)21.9 mph31.1 mphScattered Clouds
5:15 PM32.4 °F18.3 °F56 %29.88 in10.0 miWest (260°)20.7 mph26.5 mphScattered Clouds
5:35 PM32.4 °F18.3 °F56 %29.87 in10.0 miWest (270°)20.7 mph26.5 mphMostly Cloudy
5:55 PM32.2 °F18.7 °F58 %29.88 in10.0 miWest (270°)23.0 mph32.2 mphOvercast
6:15 PM32.4 °F18.7 °F57 %29.89 in10.0 miWest (270°)25.3 mph32.2 mphOvercast
6:35 PM32.2 °F19.0 °F58 %29.88 in10.0 miWest (270°)18.4 mph24.2 mphOvercast
7:15 PM32.2 °F20.1 °F61 %29.90 in10.0 miWest (260°)17.3 mph25.3 mphOvercast
7:35 PM32.2 °F20.3 °F62 %29.90 in10.0 miWest (260°)19.6 mph27.6 mphOvercast
7:55 PM32.4 °F20.3 °F61 %29.89 in10.0 miWest (260°)16.1 mph21.9 mphOvercast
8:15 PM32.9 °F20.3 °F60 %29.89 in10.0 miWest (260°)20.7 mph24.2 mphOvercast
8:35 PM32.9 °F21.4 °F63 %29.89 in10.0 miWest (260°)19.6 mph25.3 mphOvercast
8:55 PM33.1 °F22.5 °F65 %29.89 in10.0 miWest (270°)20.7 mph27.6 mphOvercast
9:15 PM32.9 °F23.0 °F67 %29.90 in10.0 miWest (270°)18.4 mph26.5 mphOvercast
9:35 PM33.3 °F23.0 °F66 %29.91 in10.0 miWest (260°)19.6 mph26.5 mphOvercast
9:55 PM33.3 °F23.2 °F67 %29.89 in10.0 miWest (260°)19.6 mph25.3 mphOvercast
10:15 PM32.9 °F23.0 °F67 %29.89 in10.0 miWest (260°)18.4 mph23.0 mphOvercast
10:35 PM32.7 °F23.0 °F67 %29.88 in10.0 miWest (260°)17.3 mph21.9 mphOvercast
10:55 PM33.3 °F23.0 °F66 %29.88 in10.0 miWest (260°)15.0 mph23.0 mphOvercast
11:15 PM33.3 °F23.0 °F66 %29.87 in10.0 miWest (260°)18.4 mph23.0 mphOvercast
11:35 PM33.4 °F23.2 °F66 %29.86 in10.0 miWSW (250°)17.3 mph27.6 mphOvercast
11:55 PM34.0 °F23.7 °F66 %29.87 in10.0 miWest (270°)17.3 mph23.0 mphOvercast
Hourly data recorded from KMKJ, located miles away from Marion, Virginia







STORIES FROM OUR PARTNERS